Regional Weather Roundup
Issued by NWS

Home | Current Version | Previous Version | Text Only | Print | Product List | Glossary Off
Versions: 1 2 3 4 5 6 7 8 9 10 11 12 13 14 15 16 17 18 19 20 21 22 23 24 25 26 27 28 29 30 31 32 33 34 35 36 37 38 39 40 41 42 43 44 45 46 47 48 49 50

000
ASUS43 KOAX 192102
RWRNE

WEATHER ROUNDUP FOR NEBRASKA
NATIONAL WEATHER SERVICE OMAHA NE
400 PM CDT FRI SEP 19 2014

NOTES: SATELLITE DATA IS BEING USED TO AUGMENT CLOUD COVER ABOVE
       12000 FEET.
       "FAIR" INDICATES FEW OR NO CLOUDS BELOW 12,000 FEET WITH NO
       SIGNIFICANT WEATHER AND/OR OBSTRUCTIONS TO VISIBILITY.

  * THESE STATIONS DO NOT REPORT WEATHER SUCH AS RAIN...SNOW OR FOG.

NEZ001>004-019>022-054>056-192200-
NEBRASKA PANHANDLE

CITY           SKY/WX    TMP DP  RH WIND       PRES   REMARKS
SCOTTSBLUFF    SUNNY     89  49  25 VRB5      29.88F
ALLIANCE       SUNNY     87  49  26 NW7       29.86F
CHADRON        SUNNY     86  50  28 W3        29.83F
KIMBALL        PTSUNNY   86  43  22 NE10      29.92F
SIDNEY         SUNNY     90  45  21 E8        29.91F
$$

NEZ057>060-069>072-079>082-192200-
SOUTHWEST NEBRASKA

CITY           SKY/WX    TMP DP  RH WIND       PRES   REMARKS
NORTH PLATTE   SUNNY     92  54  27 S17G24    29.78F HX  90
IMPERIAL       SUNNY     93  50  23 S17G24    29.83F HX  90
LEXINGTON      SUNNY     91  57  31 SW20G29   29.81S HX  90
MCCOOK         SUNNY     92  56  29 S21G31    29.81F HX  90
OGALLALA       SUNNY     93  47  20 W8        29.82F HX  90
$$

NEZ005>010-023>029-035>040-094-192200-
NORTH CENTRAL NEBRASKA

CITY           SKY/WX    TMP DP  RH WIND       PRES   REMARKS
VALENTINE      SUNNY     88  55  32 NW8       29.79S
AINSWORTH      SUNNY     85  56  36 NE7       29.78F
BROKEN BOW     SUNNY     92  62  36 S18G28    29.79F HX  92
O`NEILL        SUNNY     88  63  43 NW12      29.75R
ORD            SUNNY     88  64  44 SW21G29   29.76F
THEDFORD       SUNNY     91  59  34 NW10      29.80S
$$

NEZ041-046>049-061>064-073>077-083>087-192200-
SOUTH CENTRAL NEBRASKA

CITY           SKY/WX    TMP DP  RH WIND       PRES   REMARKS
GRAND ISLAND   SUNNY     89  62  40 SW23G35   29.79F
AURORA         SUNNY     88  57  34 S20G28    29.81F
HASTINGS       SUNNY     87  58  37 S18G28    29.83F
HEBRON         SUNNY     89  61  39 S14G23    29.85F
HOLDREGE       SUNNY     88  58  36 S21       29.83F
KEARNEY *      SUNNY     88  63  42 S22G35    29.82F
YORK           SUNNY     86  64  48 SW14G25   29.82F
$$

NEZ011>018-030>034-042>045-192200-
NORTHEAST NEBRASKA

CITY           SKY/WX    TMP DP  RH WIND       PRES   REMARKS
NORFOLK        SUNNY     89  64  43 SW25G37   29.74F HX  90
ALBION         SUNNY     88  62  41 SW14G24   29.77F
BLAIR          SUNNY     89  66  46 S14G22    29.81S HX  91
COLUMBUS *     SUNNY     90  63  40 S20G25    29.79F HX  90
FREMONT        SUNNY     89  64  43 S15G22    29.80F HX  90
TEKAMAH        SUNNY     90  66  45 S22G29    29.77F HX  92
WAYNE          SUNNY     90  66  45 SW22G29   29.74S HX  92
$$

NEZ050>053-065>068-078-088>093-192200-
SOUTHEAST NEBRASKA

CITY           SKY/WX    TMP DP  RH WIND       PRES   REMARKS
LINCOLN        SUNNY     90  62  39 SW22G31   29.81F HX  90
OMAHA EPPLEY   MOSUNNY   84  68  58 S20       29.81F
BEATRICE       SUNNY     89  65  44 SW23      29.85F HX  90
FALLS CITY     MOSUNNY   81  69  67 S14       29.89F
NEBRASKA CITY  SUNNY     83  61  46 S16G22    29.86F
PLATTSMOUTH    SUNNY     85  65  51 S17       29.84F
$$

NEZ044-045-051>053-067-192200-
OMAHA AREA

CITY           SKY/WX    TMP DP  RH WIND       PRES   REMARKS
OMAHA EPPLEY   MOSUNNY   84  68  58 S20       29.81F
BLAIR          SUNNY     89  66  46 S14G22    29.81S HX  91
FREMONT        SUNNY     89  64  43 S15G22    29.80F HX  90
MILLARD        SUNNY     88  67  49 S10G22    29.81S HX  91
OFFUTT AFB     SUNNY     84  73  69 S16G23    29.82F HX  90
PLATTSMOUTH    SUNNY     85  65  51 S17       29.84F
WAHOO          FAIR      91  60  35 S13G24    29.80F HX  90
$$


USA.gov is the U.S. government's official web portal to all federal, state and local government web resources and services.